TIME,DELAY(SENSOR),PRES,OXYGEN,RAWTEMP,T(OPTODE),TCPHASE,FLUOR,BETA(BETA700),BETA(BETA412),BETA(BETA440),CDOM,C(CSC),ED(ED411.90),ED(ED443.80),ED(ED489.40),ED(ED554.70),LU(LU412.20),LU(LU443.80),LU(LU489.40),LU(LU555.00),COMP,TILTX,TILTY,CHECK
1351462518,5806,872.2199707031250000,166.5054016113281200,426.3888854980469000,9.7967967987060550,38.9126892089843750,53,100,70,66,72,13360,2146964096,2147515291,2147284964,2147503689,2147088749,2146933677,2147703396,2147120640,3061,-1,9,7837
1351466114,5808,990.2299804687500000,200.1354980468750000,502.3819885253906000,7.4555759429931640,37.9322814941406250,52,104,72,66,72,13356,2146962029,2147519606,2147293248,2147520484,2147090358,2146919378,2147718089,2147120685,344,-1,9,13158
1351469714,5805,1017.7299804687500000,210.0848999023437500,512.5327148437500000,7.1401481628417970,37.5118103027343750,52,103,72,65,71,13348,2146961261,2147519890,2147295204,2147524434,2147085595,2146925001,2147722541,2147123492,557,-1,8,53104
1351473314,5806,1022.5499877929688000,210.5514984130859400,513.8909301757812000,7.0978860855102540,37.5074615478515600,52,103,70,66,73,13345,2146965860,2147522011,2147295442,2147523538,2147093476,2146921362,2147720987,2147121526,3405,-1,8,29213
1351476914,5805,1021.5900268554688000,212.0171051025390600,515.1190185546875000,7.0596671104431150,37.4445381164550800,52,105,71,65,72,13342,2146959460,2147517997,2147294555,2147521764,2147089764,2146925796,2147724626,2147124489,1158,-1,9,14568
1351480514,5803,1026.4699707031250000,213.2066955566406200,516.2227783203125000,7.0253000259399410,37.3947906494140600,53,124,71,66,71,13342,2146962395,2147515318,2147293622,2147523154,2147090624,2146922130,2147719341,2147122742,1124,-1,8,95
1351484114,5807,1024.7600097656250000,214.9199066162109400,517.9739990234375000,6.9707660675048830,37.3263893127441400,52,102,72,67,72,13340,2146961865,2147519862,2147294893,2147523803,2147090121,2146924425,2147717714,2147121426,3476,-1,9,52630
1351487714,5805,1028.3900146484375000,216.4597930908203000,517.9807128906250000,6.9705572128295900,37.2393684387207000,52,104,72,66,72,13337,2146964562,2147522825,2147298413,2147524461,2147087360,2146925860,2147721700,2147121472,2901,-1,8,48355
1351491314,5807,1025.1199951171875000,215.8829956054687500,518.5416259765625000,6.9530868530273440,37.2820892333984400,52,112,71,65,72,13339,2146963026,2147517156,2147295332,2147523556,2147088530,2146922870,2147726253,2147121280,2984,-1,9,51349
1351494914,5805,1027.9300537109375000,217.6667938232422000,519.4274291992188000,6.9254879951477050,37.1956596374511700,52,102,72,66,72,13340,2146960411,2147520374,2147298596,2147522596,2147090249,2146923456,2147720576,2147124004,3352,-1,9,65372
1351498514,5806,1025.3699951171875000,217.9844970703125000,519.4431762695312000,6.9249939918518070,37.1781806945800800,52,103,72,66,72,13343,2146963044,2147520557,2147295798,2147523465,2147088000,2146924946,2147721490,2147118646,3480,-1,9,65128
1351502114,5806,1018.7500000000000000,219.8484039306640600,522.8796997070312000,6.8178791999816895,37.1338615417480500,52,103,71,67,72,13330,2146960841,2147519140,2147297243,2147526144,2147089005,2146922121,2147719680,2147124644,3248,-1,9,1267
1351505714,5805,1024.6899414062500000,220.6802978515625000,522.3900146484375000,6.8331499099731445,37.0790481567382800,52,104,79,66,71,13329,2146964379,2147517229,2147294226,2147524553,2147090075,2146920301,2147718793,2147121746,3148,-1,8,18203
1351509314,5807,1024.1099853515625000,219.4270935058593800,521.7819824218750000,6.8521032333374020,37.1388893127441400,52,100,71,66,72,13312,2146961929,2147515254,2147293970,2147524187,2147088969,2146920091,2147723638,2147119862,391,0,8,31936
1351512914,5807,1028.9100341796875000,218.6157073974609400,520.7404174804688000,6.8845710754394530,37.1656188964843750,52,103,70,64,72,13325,2146962093,2147515949,2147296777,2147524150,2147089490,2146919369,2147723465,2147119798,151,-1,8,12646
1351516514,5805,1026.7600097656250000,218.7664031982422000,521.4000854492188000,6.8640079498291020,37.1688499450683600,52,102,71,67,72,13322,2146963136,2147515620,2147297481,2147526208,2147088859,2146922221,2147721316,2147118692,3407,-1,9,7479
1351520114,5809,1029.9599609375000000,218.8610992431640600,520.7954711914062000,6.8828539848327640,37.1533012390136700,53,102,70,66,73,13317,2146963529,2147518436,2147295177,2147521645,2147090587,2146922057,2147722029,2147121371,146,-1,8,11429
1351523714,5807,1032.3499755859375000,218.3968048095703000,520.4053955078125000,6.8950128555297850,37.1716804504394500,52,103,71,66,72,13323,2146963620,2147515062,2147293906,2147519424,2147088658,2146921060,2147721389,2147119158,253,-1,8,1971
1351527314,5805,1031.7700195312500000,217.7834014892578000,520.2778930664062000,6.8989858627319340,37.2043609619140600,53,104,72,68,72,13322,2146962038,2147517696,2147295049,2147522194,2147087954,2146926016,2147722587,2147121398,3571,-1,9,34495
1351530914,5806,1030.3199462890625000,216.4418945312500000,520.1920776367188000,6.9016580581665040,37.2786788940429700,53,101,72,65,72,13319,2146963108,2147515026,2147296411,2147523858,2147086546,2146916937,2147723986,2147121435,3369,0,8,27526
1351534514,5809,1029.3900146484375000,216.2991027832031200,518.4105834960938000,6.9571671485900880,37.2561607360839840,53,103,71,65,71,13317,2146964041,2147517613,2147295917,2147525467,2147087433,2146923885,2147719698,2147121636,398,0,8,63687
1351538114,5804,1025.6700439453125000,216.7140045166015600,519.0626220703125000,6.9368557929992680,37.2439689636230500,54,102,72,66,72,13312,2146963849,2147518518,2147295094,2147522651,2147090998,2146922093,2147725074,2147119488,3487,-1,8,3811
1351541714,5806,1025.5500488281250000,215.7250976562500000,519.4130859375000000,6.9259328842163090,37.3066215515136700,53,102,70,66,71,13311,2146962532,2147515904,2147295533,2147523657,2147086994,2146925275,2147721517,2147118820,3529,-1,9,53295
1351545314,5807,1026.4899902343750000,215.9658966064453000,519.6339111328125000,6.9190540313720700,37.2964897155761700,53,104,71,65,72,13310,2146963547,2147519451,2147294637,2147522797,2147089453,2146922267,2147722368,2147119588,3561,0,9,13522
1351548914,5808,1029.2800292968750000,216.3013000488281200,519.0648803710938000,6.9367837905883790,37.2675209045410160,52,102,69,66,72,13307,2146964333,2147517184,2147296512,2147522596,2147086985,2146923264,2147719323,2147121828,3123,0,9,37392
1351552514,5805,1029.3199462890625000,216.4425048828125000,519.1199951171875000,6.9350671768188480,37.2602005004882800,53,103,72,66,71,13309,2146960530,2147518016,2147296128,2147520969,2147091629,2146929618,2147723611,2147123730,3087,0,8,38089
1351556114,5804,1027.4899902343750000,216.6549072265625000,519.1561279296875000,6.9339408874511720,37.2490806579589840,52,102,70,66,70,13307,2146966509,2147515099,2147296594,2147520182,2147089792,2146923026,2147720859,2147124653,329,0,9,50553
1351559714,5808,1025.7099609375000000,215.2843017578125000,519.4484863281250000,6.9248290061950680,37.3324699401855500,52,103,71,68,71,13306,2146963145,2147516845,2147294738,2147525248,2147090112,2146923602,2147721920,2147121984,671,-1,8,12348
1351563314,5807,1030.1300048828125000,216.7162933349609400,519.2617187500000000,6.9306530952453610,37.2468605041503900,53,104,70,64,72,13307,2146964196,2147517202,2147296758,2147524690,2147087040,2146916644,2147723254,2147122294,572,0,9,43128
1351566914,5806,1031.1099853515625000,216.6820068359375000,519.2249145507812000,6.9317970275878910,37.2481918334960940,52,104,72,67,71,13304,2146964589,2147517531,2147296347,2147521654,2147086774,2146926016,2147720512,2147122148,3395,-1,9,60357
1351570514,5805,1032.3399658203125000,216.8397979736328000,518.9835815429688000,6.9393148422241210,37.2355194091796900,52,107,70,67,72,13304,2146963145,2147515611,2147294500,2147522678,2147085842,2146922121,2147725321,2147120548,3157,-1,9,15065
1351574114,5807,1017.7199707031250000,208.2727966308593800,507.9100952148437500,7.2838778495788570,37.5374488830566400,52,104,71,65,73,13307,2146963931,2147518409,2147295780,2147521782,2147092041,2146923355,2147718372,2147120694,35,0,8,57463
1351577714,5806,1016.9299926757812000,206.6105957031250000,506.1653137207031000,7.3380918502807620,37.6051216125488300,52,101,70,66,71,13307,2146964882,2147513014,2147295296,2147522514,2147088411,2146913005,2147716726,2147123099,2500,-1,8,58078
1351581314,5808,1009.1699829101562000,207.0812988281250000,508.0625000000000000,7.2791447639465330,37.6105003356933600,51,101,71,66,72,13301,2146964882,2147519405,2147291282,2147521545,2147089444,2146922340,2147718601,2147119936,10,0,8,8345
1351584914,5807,1002.3699951171875000,210.4268951416015600,512.0701293945312000,7.1545357704162600,37.4834785461425800,53,104,71,66,72,13300,2146964169,2147518034,2147293622,2147520036,2147086921,2146923648,2147717421,2147119963,290,0,9,56368
1351588514,5804,997.0900268554688000,209.6777038574218800,514.8541259765625000,7.0679087638854980,37.5761108398437500,52,103,71,66,72,13296,2146963913,2147519625,2147294025,2147524836,2147088338,2146922057,2147721060,2147120621,3063,-1,9,48225
1351592114,5805,1003.2000122070312000,213.6092987060547000,515.8535156250000000,7.0367989540100100,37.3649902343750000,52,104,70,66,72,13292,2146961810,2147515556,2147295341,2147522139,2147092114,2146924214,2147721280,2147119277,542,0,8,46385
1351595714,5805,1004.0300292968750000,211.2438964843750000,514.3521118164062000,7.0835361480712890,37.4757499694824200,52,103,71,66,72,13299,2146962130,2147519241,2147295241,2147520201,2147090889,2146925906,2147717714,2147121883,312,-1,8,31287
1351599314,5806,1014.7600097656250000,210.1147003173828000,512.2006225585938000,7.1504759788513180,37.5042915344238300,51,104,70,64,72,13302,2146965275,2147519753,2147295972,2147522194,2147083437,2146920576,2147720356,2147119222,3538,-1,8,22414
1351602914,5806,1009.3400268554688000,208.7086944580078000,511.8846130371094000,7.1603088378906250,37.5811500549316400,52,103,70,66,72,13297,2146965942,2147518528,2147297901,2147524608,2147090240,2146921490,2147724608,2147121865,213,-1,8,64103
1351604755,5806,1010.2000122070312000,209.3208007812500000,510.4479064941406000,7.2049889564514160,37.5198402404785160,53,102,71,66,72,13305,2146963922,2147517357,2147296466,2147518226,2147090633,2146920329,2147719826,2147122422,3253,-1,8,21932
